Regional Weather Roundup
Issued by NWS Kansas City/Pleasant Hill, MO

Home | Current Version | Previous Version | Text Only | Print | Product List | Glossary On
Versions: 1 2 3 4 5 6 7 8 9 10 11 12 13 14 15 16 17 18 19 20 21 22 23 24 25 26
000
ASUS43 KEAX 241710
RWREAX

WEATHER ROUNDUP FOR EASTERN KANSAS AND NORTHWEST MISSOURI
NATIONAL WEATHER SERVICE KANSAS CITY/PLEASANT HILL MO
1100 AM CST SAT FEB 24 2018

KSZ040-057-103>105-MOZ028-029-037-043-241800-
...KANSAS CITY METROPOLITAN AREA...

CITY           SKY/WX    TMP DP  RH WIND       PRES   REMARKS
K.C. INTL      DRIZZLE   36  35  96 SE16      29.81F FOG     WCI  26
K.C. DOWNTOWN  CLOUDY    39  36  89 E6        29.84F FOG     WCI  35
LEES SUMMIT    CLOUDY    37  37 100 SE6       29.85R FOG     WCI  32
OLATHE - IXD   CLOUDY    37  37 100 E12       29.81F FOG     WCI  29
OLATHE - OJC   CLOUDY    36  36 100 SE9       29.82F FOG     WCI  29
LAWRENCE       CLOUDY    37  37 100 E10       29.80F FOG     WCI  30

$$

MOZ001>008-011>017-020>025-030>033-038>040-044>046-053-054-241800-
...NORTHERN AND CENTRAL MISSOURI...

CITY           SKY/WX    TMP DP  RH WIND       PRES   REMARKS
ST. JOSEPH     CLOUDY    34  34 100 E7        29.85F FOG     WCI  28
MOSBY          CLOUDY    36  36 100 SE6       29.87R FOG     WCI  31
WARRENSBURG    CLOUDY    37  37 100 E3        29.86R FOG
WHITEMAN AFB   CLOUDY    41  39  93 E5        29.83R FOG
CLINTON        FOG       41  41 100 E3        29.84F VSB 1/2
SEDALIA        CLOUDY    41  41 100 SE12      29.87R FOG     WCI  34
WARSAW         NOT AVBL
CHILLICOTHE      N/A     36  35  96 E9        29.87F WCI  29
KIRKSVILLE     CLOUDY    33  33 100 E15       29.87F FOG     WCI  23

$$

MOZ041-047>049-056>058-063>065-088>090-097-241800-
...EASTERN AND SOUTHERN MISSOURI...

CITY           SKY/WX    TMP DP  RH WIND       PRES   REMARKS
ST. LOUIS INTL FOG       44  43  96 NE9       29.91F VSB 3/4
SPIRIT OF STL  CLOUDY    43  43 100 NE8       29.90F
COLUMBIA       FOG       41  41 100 E9        29.86F VSB 1
JEFFERSON CITY CLOUDY    43  41  93 E7        29.87F FOG
ROLLA          CLOUDY    50  50 100 SE9       29.86F
OSAGE BEACH    CLOUDY    49  49 100 SE3       29.85S
SPRINGFIELD    CLOUDY    52  52 100 SE9       29.80F FOG
BRANSON        LGT RAIN  48  48 100 SE13G18   29.82F VSB 1
JOPLIN         TSTM      46  46 100 CALM      29.87R VSB 1
WEST PLAINS    FOG       50  50 100 SE5       29.88F VSB 1/4

$$

IAZ060-094-KSZ022-034>040-054-083-096-NEZ052-066-093-241800-
...KANSAS...SOUTHEAST NEBRASKA AND IOWA...

CITY           SKY/WX    TMP DP  RH WIND       PRES   REMARKS
TOPEKA         CLOUDY    38  38 100 SE6       29.82S WCI  33
MANHATTAN      CLOUDY    35  32  88 CALM      29.85R
EMPORIA        FOG       33  33 100 S14       29.86R VSB 1/4 WCI  23
CHANUTE        LGT RAIN  39  39 100 N6        29.78F FOG     WCI  35
WICHITA        CLOUDY    35  34  96 CALM      29.83S
OMAHA          FRZ DRZL  28  26  92 NW7       29.85F VSB 1   WCI  21
LINCOLN        CLOUDY    27  25  92 N9        29.86F FOG     WCI  18
FALLS CITY     CLOUDY    31  30  96 NE8       29.80F FOG     WCI  23
LAMONI         CLOUDY    32  30  92 E9        29.83F FOG     WCI  24
DES MOINES     FRZ DRZL  31  29  92 E13G22    29.88F VSB 1   WCI  21

$$





USA.gov is the U.S. government's official web portal to all federal, state and local government web resources and services.